Weather History for KLJF - July, 2013

Change the Weather History Date:

Tuesday, July 23, 2013

  Actual Average Record
Temperature  
Mean Temperature 66 °F -  
Max Temperature 77 °F 82 °F 95 °F (1964)
Min Temperature 55 °F 60 °F 49 °F (1948)
Cooling Degree Days 1    
Growing Degree Days 16 (Base 50)    
Moisture  
Dew Point 55 °F    
Average Humidity 68    
Maximum Humidity 100    
Minimum Humidity 38    
Precipitation  
Precipitation 0.00 in - - ()
Sea Level Pressure  
Sea Level Pressure 29.99 in    
Wind  
Wind Speed 6 mph (North)    
Max Wind Speed 12 mph    
Max Gust Speed 17 mph    
Visibility 10 miles    
Events      
Averages and records for this station are not official NWS values.
T = Trace of Precipitation, MM = Missing Value Source: NWS Daily Summary

Daily Weather History Graph

Daily Weather History Graph

Search for Another Location

Airport or City:

Trip Planner

Search our weather history database for the weather conditions in past years. The results will help you decide how hot, cold, wet, or windy it might be!

Date:

Astronomy

Jul. 23, 2013 Rise Set
Actual Time 5:53 AM CDT 8:54 PM CDT
Civil Twilight 5:18 AM CDT 9:29 PM CDT
Nautical Twilight 4:33 AM CDT 10:14 PM CDT
Astronomical Twilight 3:39 AM CDT 11:07 PM CDT
Moon 9:15 PM CDT (7/23) 7:08 AM CDT (7/23)
Length of Visible Light 16h 11m
Length of Day
15h 01m
Full, 99% of the Moon is Illuminated
Jul 23
Full
Jul 29
Last Quarter
Aug 6
New
Aug 14
First Quarter
Aug 20
Full

Hourly Weather History & Observations

Time (CDT) Temp. Dew Point Humidity Pressure Visibility Wind Dir Wind Speed Gust Speed Precip Events Conditions
12:13 AM 64.4 °F 57.2 °F 77% 29.91 in 10.0 mi NW 8.1 mph - N/A   Clear
12:32 AM 62.6 °F 57.2 °F 82% 29.91 in 10.0 mi NNW 5.8 mph - N/A   Clear
12:53 AM 62.6 °F 57.2 °F 82% 29.91 in 10.0 mi NNW 5.8 mph - N/A   Clear
1:13 AM 62.6 °F 57.2 °F 82% 29.91 in 10.0 mi NW 6.9 mph - N/A   Clear
1:32 AM 60.8 °F 57.2 °F 88% 29.92 in 10.0 mi NW 5.8 mph - N/A   Clear
1:51 AM 60.8 °F 57.2 °F 88% 29.92 in 10.0 mi NNW 5.8 mph - N/A   Clear
2:13 AM 60.8 °F 57.2 °F 88% 29.92 in 10.0 mi NNW 6.9 mph - N/A   Clear
2:32 AM 60.8 °F 57.2 °F 88% 29.92 in 10.0 mi NNW 6.9 mph - N/A   Clear
2:53 AM 60.8 °F 57.2 °F 88% 29.92 in 10.0 mi NW 6.9 mph - N/A   Clear
3:13 AM 60.8 °F 57.2 °F 88% 29.93 in 10.0 mi NNW 8.1 mph - N/A   Clear
3:32 AM 60.8 °F 57.2 °F 88% 29.93 in 10.0 mi NNW 8.1 mph - N/A   Clear
3:53 AM 59.0 °F 57.2 °F 94% 29.94 in 10.0 mi NNW 6.9 mph - N/A   Clear
4:12 AM 59.0 °F 57.2 °F 94% 29.93 in 10.0 mi NNW 8.1 mph - N/A   Clear
4:33 AM 59.0 °F 57.2 °F 94% 29.94 in 10.0 mi NNW 6.9 mph - N/A   Clear
4:53 AM 57.2 °F 55.4 °F 94% 29.95 in 10.0 mi North 8.1 mph - N/A   Clear
5:10 AM 57.2 °F 57.2 °F 100% 29.95 in 10.0 mi North 6.9 mph - N/A   Scattered Clouds
5:33 AM 57.2 °F 55.4 °F 94% 29.96 in 10.0 mi NW 3.5 mph - N/A   Scattered Clouds
5:52 AM 57.2 °F 55.4 °F 94% 29.96 in 10.0 mi SW 3.5 mph - N/A   Clear
6:13 AM 55.4 °F 53.6 °F 94% 29.96 in 10.0 mi WSW 3.5 mph - N/A   Unknown
6:33 AM 57.2 °F 57.2 °F 100% 29.98 in 10.0 mi NW 3.5 mph - N/A   Unknown
6:52 AM 59.0 °F 57.2 °F 94% 29.99 in 10.0 mi NW 4.6 mph - N/A   Clear
7:13 AM 60.8 °F 57.2 °F 88% 30.01 in 10.0 mi NW 4.6 mph - N/A   Clear
7:33 AM 60.8 °F 57.2 °F 88% 30.01 in 10.0 mi NW 5.8 mph - N/A   Clear
7:52 AM 62.6 °F 57.2 °F 82% 30.01 in 10.0 mi NNW 6.9 mph - N/A   Clear
8:13 AM 62.6 °F 57.2 °F 82% 30.00 in 10.0 mi North 6.9 mph - N/A   Clear
8:32 AM 62.6 °F 57.2 °F 82% 30.00 in 10.0 mi North 8.1 mph - N/A   Clear
8:53 AM 64.4 °F 59.0 °F 83% 29.99 in 10.0 mi NNE 9.2 mph - N/A   Clear
9:13 AM 64.4 °F 57.2 °F 77% 30.00 in 10.0 mi NNE 8.1 mph - N/A   Clear
9:32 AM 66.2 °F 57.2 °F 73% 30.01 in 10.0 mi North 8.1 mph - N/A   Clear
9:53 AM 69.8 °F 57.2 °F 64% 30.01 in 10.0 mi NNE 8.1 mph - N/A   Clear
10:13 AM 69.8 °F 57.2 °F 64% 30.02 in 10.0 mi North 6.9 mph - N/A   Clear
10:32 AM 69.8 °F 57.2 °F 64% 30.03 in 10.0 mi North 10.4 mph - N/A   Clear
10:53 AM 69.8 °F 57.2 °F 64% 30.03 in 10.0 mi NNW 9.2 mph - N/A   Scattered Clouds
11:13 AM 71.6 °F 55.4 °F 57% 30.03 in 10.0 mi NNW 9.2 mph - N/A   Scattered Clouds
11:32 AM 71.6 °F 55.4 °F 57% 30.03 in 10.0 mi North 5.8 mph - N/A   Clear
11:53 AM 71.6 °F 55.4 °F 57% 30.03 in 10.0 mi North 5.8 mph - N/A   Clear
12:13 PM 71.6 °F 53.6 °F 53% 30.03 in 10.0 mi NNE 11.5 mph - N/A   Clear
12:32 PM 73.4 °F 53.6 °F 50% 30.02 in 10.0 mi NNE 9.2 mph - N/A   Clear
12:53 PM 73.4 °F 53.6 °F 50% 30.02 in 10.0 mi NNE 8.1 mph - N/A   Clear
1:12 PM 73.4 °F 53.6 °F 50% 30.02 in 10.0 mi NNW 3.5 mph - N/A   Clear
1:33 PM 73.4 °F 51.8 °F 47% 30.01 in 10.0 mi NNE 8.1 mph - N/A   Clear
1:53 PM 73.4 °F 51.8 °F 47% 30.01 in 10.0 mi North 9.2 mph 17.3 mph N/A   Scattered Clouds
2:12 PM 73.4 °F 51.8 °F 47% 30.01 in 10.0 mi NNE 6.9 mph - N/A   Clear
2:33 PM 75.2 °F 53.6 °F 47% 30.02 in 10.0 mi NE 8.1 mph - N/A   Clear
2:53 PM 75.2 °F 51.8 °F 44% 30.02 in 10.0 mi NE 8.1 mph - N/A   Clear
3:12 PM 75.2 °F 51.8 °F 44% 30.01 in 10.0 mi North 5.8 mph - N/A   Clear
3:33 PM 75.2 °F 50.0 °F 41% 30.01 in 10.0 mi NNE 6.9 mph - N/A   Clear
3:53 PM 77.0 °F 50.0 °F 39% 30.01 in 10.0 mi NNE 4.6 mph - N/A   Clear
4:12 PM 75.2 °F 48.2 °F 38% 30.00 in 10.0 mi NNE 6.9 mph - N/A   Clear
4:33 PM 75.2 °F 51.8 °F 44% 30.01 in 10.0 mi NNE 6.9 mph - N/A   Clear
4:53 PM 77.0 °F 51.8 °F 41% 30.01 in 10.0 mi North 8.1 mph - N/A   Clear
5:12 PM 75.2 °F 48.2 °F 38% 30.01 in 10.0 mi NNW 5.8 mph - N/A   Clear
5:33 PM 75.2 °F 48.2 °F 38% 30.01 in 10.0 mi NW 4.6 mph - N/A   Clear
5:53 PM 75.2 °F 48.2 °F 38% 30.01 in 10.0 mi ENE 6.9 mph - N/A   Scattered Clouds
6:12 PM 75.2 °F 50.0 °F 41% 30.01 in 10.0 mi North 8.1 mph - N/A   Mostly Cloudy
6:33 PM 75.2 °F 50.0 °F 41% 30.01 in 10.0 mi NNE 5.8 mph - N/A   Scattered Clouds
6:53 PM 73.4 °F 51.8 °F 47% 30.01 in 10.0 mi North 3.5 mph - N/A   Scattered Clouds
7:12 PM 73.4 °F 50.0 °F 44% 30.01 in 10.0 mi NE 5.8 mph - N/A   Clear
7:33 PM 73.4 °F 51.8 °F 47% 30.01 in 10.0 mi ENE 3.5 mph - N/A   Clear
7:53 PM 73.4 °F 53.6 °F 50% 30.01 in 10.0 mi East 4.6 mph - N/A   Clear
8:12 PM 71.6 °F 53.6 °F 53% 30.01 in 10.0 mi East 3.5 mph - N/A   Clear
8:33 PM 69.8 °F 53.6 °F 56% 30.01 in 10.0 mi East 3.5 mph - N/A   Clear
8:53 PM 69.8 °F 53.6 °F 56% 30.01 in 10.0 mi East 3.5 mph - N/A   Clear
9:12 PM 68.0 °F 53.6 °F 60% 30.02 in 10.0 mi East 3.5 mph - N/A   Clear
9:33 PM 66.2 °F 53.6 °F 64% 30.02 in 10.0 mi East 3.5 mph - N/A   Scattered Clouds
9:52 PM 64.4 °F 55.4 °F 73% 30.04 in 10.0 mi Calm Calm - N/A   Clear
10:13 PM 64.4 °F 55.4 °F 73% 30.04 in 10.0 mi Calm Calm - N/A   Clear
10:33 PM 62.6 °F 55.4 °F 77% 30.04 in 10.0 mi Calm Calm - N/A   Scattered Clouds
10:52 PM 62.6 °F 55.4 °F 77% 30.04 in 10.0 mi Calm Calm - N/A   Scattered Clouds
11:13 PM 62.6 °F 55.4 °F 77% 30.04 in 10.0 mi Calm Calm - N/A   Unknown
11:33 PM 62.6 °F 57.2 °F 82% 30.04 in 10.0 mi Calm Calm - N/A   Unknown
11:53 PM 62.6 °F 57.2 °F 82% 30.04 in 10.0 mi Calm Calm - N/A   Clear